Carbondale, IL

12:42 PM CDT on July 20, 2017 (GMT -0500)
Southern Illinois

Weather History for KMDH - February, 2013

Change the Weather History Date:

Friday, February 22, 2013

  Actual Average Record
Temperature  
Mean Temperature 34 °F -  
Max Temperature 39 °F 53 °F 73 °F (1922)
Min Temperature 28 °F 28 °F -7 °F (1963)
Degree Days  
Heating Degree Days 32    
Moisture  
Dew Point 29 °F    
Average Humidity 78    
Maximum Humidity 89    
Minimum Humidity 65    
Precipitation  
Precipitation 0.00 in - - ()
Sea Level Pressure  
Sea Level Pressure 29.97 in    
Wind  
Wind Speed 7 mph (WSW)    
Max Wind Speed 16 mph    
Max Gust Speed 18 mph    
Visibility 8 miles    
Events      
Averages and records for this station are not official NWS values.
T = Trace of Precipitation, MM = Missing Value Source: NWS Daily Summary

Daily Weather History Graph

Daily Weather History Graph

Search for Another Location

Airport or City:

Trip Planner

Search our weather history database for the weather conditions in past years. The results will help you decide how hot, cold, wet, or windy it might be!

Date:

Astronomy

Feb. 22, 2013 Rise Set
Actual Time 6:37 AM CST 5:43 PM CST
Civil Twilight 6:11 AM CST 6:10 PM CST
Nautical Twilight 5:40 AM CST 6:40 PM CST
Astronomical Twilight 5:10 AM CST 7:11 PM CST
Moon 2:57 PM CST (2/22) 4:20 AM CST (2/22)
Length of Visible Light 11h 59m
Length of Day
11h 06m
Waxing Gibbous, 90% of the Moon is Illuminated
Feb 22
Waxing Gibbous
Feb 25
Full
Mar 4
Last Quarter
Mar 11
New
Mar 19
First Quarter

Hourly Weather History & Observations

Time (CST) Temp. Windchill Dew Point Humidity Pressure Visibility Wind Dir Wind Speed Gust Speed Precip Events Conditions
12:52 AM 35.1 °F 32.2 °F 32.0 °F 89% 29.85 in 5.0 mi West 3.5 mph - N/A   Overcast
1:52 AM 35.1 °F - 32.0 °F 89% 29.85 in 4.0 mi Calm Calm - N/A   Overcast
2:52 AM 35.1 °F 31.0 °F 30.9 °F 85% 29.85 in 2.5 mi SW 4.6 mph - N/A   Overcast
3:19 AM 35.6 °F 29.2 °F 32.0 °F 87% 29.84 in 1.8 mi West 8.1 mph - N/A   Overcast
3:45 AM 35.6 °F 28.0 °F 32.0 °F 87% 29.85 in 2.5 mi WSW 10.4 mph - N/A   Overcast
3:52 AM 35.1 °F 27.9 °F 32.0 °F 89% 29.86 in 2.0 mi SW 9.2 mph - N/A   Overcast
4:07 AM 35.6 °F 29.2 °F 32.0 °F 87% 29.85 in 4.0 mi SW 8.1 mph 18.4 mph N/A   Overcast
4:45 AM 35.6 °F 28.0 °F 32.0 °F 87% 29.88 in 8.0 mi SSW 10.4 mph - N/A   Scattered Clouds
4:52 AM 36.0 °F 29.6 °F 32.0 °F 86% 29.88 in 10.0 mi SSW 8.1 mph - N/A   Partly Cloudy
5:22 AM 35.6 °F 29.9 °F 30.2 °F 81% 29.89 in 10.0 mi SW 6.9 mph - N/A   Mostly Cloudy
6:47 AM 35.6 °F 30.7 °F 32.0 °F 87% 29.92 in 10.0 mi SSW 5.8 mph - N/A   Overcast
7:52 AM 36.0 °F 29.6 °F 30.9 °F 82% 29.95 in 10.0 mi SSW 8.1 mph - N/A   Overcast
8:52 AM 36.0 °F 29.0 °F 32.0 °F 86% 29.99 in 10.0 mi SSW 9.2 mph - N/A   Overcast
9:21 AM 35.6 °F 28.6 °F 30.2 °F 81% 29.97 in 10.0 mi SSW 9.2 mph - N/A   Overcast
10:52 AM 39.0 °F 31.8 °F 32.0 °F 76% 30.01 in 10.0 mi SSW 11.5 mph - N/A   Overcast
11:52 AM 39.9 °F 31.4 °F 30.9 °F 70% 30.01 in 10.0 mi WSW 16.1 mph - N/A   Overcast
11:59 AM 39.2 °F 31.6 °F 30.2 °F 70% 30.00 in 10.0 mi SW 12.7 mph - N/A   Overcast
12:52 PM 39.0 °F 32.8 °F 30.9 °F 73% 30.00 in 10.0 mi West 9.2 mph - N/A   Overcast
1:52 PM 39.9 °F 33.4 °F 30.0 °F 68% 29.99 in 10.0 mi West 10.4 mph - N/A   Overcast
2:52 PM 39.0 °F 30.6 °F 30.0 °F 70% 30.01 in 10.0 mi WSW 15.0 mph - N/A   Overcast
3:52 PM 37.9 °F 32.7 °F 28.0 °F 68% 30.01 in 10.0 mi West 6.9 mph - N/A   Overcast
4:52 PM 36.0 °F 30.3 °F 26.1 °F 67% 30.02 in 10.0 mi West 6.9 mph - N/A   Mostly Cloudy
5:06 PM 35.6 °F 29.9 °F 24.8 °F 65% 30.02 in 10.0 mi West 6.9 mph - N/A   Scattered Clouds
5:15 PM 35.6 °F 29.9 °F 24.8 °F 65% 30.02 in 10.0 mi West 6.9 mph - N/A   Mostly Cloudy
5:52 PM 36.0 °F 32.1 °F 26.1 °F 67% 30.04 in 10.0 mi WSW 4.6 mph - N/A   Overcast
6:52 PM 35.1 °F 30.1 °F 26.1 °F 70% 30.06 in 10.0 mi West 5.8 mph - N/A   Overcast
7:52 PM 34.0 °F 31.0 °F 25.0 °F 70% 30.07 in 10.0 mi WNW 3.5 mph - N/A   Scattered Clouds
8:52 PM 32.0 °F - 24.1 °F 73% 30.08 in 10.0 mi Calm Calm - N/A   Clear
9:52 PM 28.9 °F - 24.1 °F 82% 30.10 in 10.0 mi Calm Calm - N/A   Clear
10:52 PM 28.9 °F 25.2 °F 24.1 °F 82% 30.09 in 10.0 mi SW 3.5 mph - N/A   Clear
11:52 PM 28.9 °F - 23.0 °F 78% 30.08 in 10.0 mi Calm Calm - N/A   Clear